Regional Weather Roundup
Issued by NWS

Home | Current Version | Previous Version | Text Only | Print | Product List | Glossary On
Versions: 1 2 3 4 5 6 7 8 9 10 11 12 13 14 15 16 17 18 19 20 21 22 23 24 25 26 27 28 29 30 31 32 33 34 35 36 37 38 39 40 41 42 43 44 45 46 47 48 49 50
602
ASUS44 KJAN 251210
RWRMS

MISSISSIPPI HOURLY WEATHER ROUNDUP
NATIONAL WEATHER SERVICE JACKSON MS
600 AM CST SUN JAN 25 2015

NOTE: "FAIR: INDICATES FEW OR NO CLOUDS BELOW 12,000 FEET WITH NO
SIGNIFICANT WEATHER AND/OR OBSTRUCTIONS TO VISIBILITY.

MSZ001>002-007>008-010>013-018>021-025>028-034>036-251300-
NORTHWEST MISSISSIPPI

CITY           SKY/WX    TMP DP  RH WIND       PRES   REMARKS
CLARKSDALE     FAIR      36  36 100 S6        29.85F WCI  31
CLEVELAND      FAIR      37  36  94 S8        29.87S WCI  31
GREENWOOD      FAIR      40  34  79 S9        29.90F WCI  34
6HR MIN TEMP:  38; 6HR MAX TEMP:  41;

GREENVILLE     PTCLDY    40  34  79 SW10      29.88F WCI  33
6HR MIN TEMP:  39; 6HR MAX TEMP:  45;

GRENADA        FAIR      32  32 100 CALM      29.89S
OLIVE BRANCH   CLEAR     36  36 100 S9        29.82S WCI  29
OXFORD         FAIR      37  32  81 S6        29.87R WCI  33
TUNICA         CLOUDY    36  32  87 S9        29.83F WCI  29
$$

MSZ003>006-009-014>017-022>024-029>033-037>039-251300-
NORTHEAST MISSISSIPPI

CITY           SKY/WX    TMP DP  RH WIND       PRES   REMARKS
COLUMBUS AFB   CLEAR     32  30  91 S7        29.90F WCI  26
6HR MIN TEMP:  28; 6HR MAX TEMP:  33;

CORINTH        FAIR      32  30  93 SE6       29.84S WCI  26
GOLDN TRIANGLE CLEAR     37  30  75 S7        29.90F WCI  32
STARKVILLE     FAIR      34  32  93 S3        29.91F
TUPELO         CLEAR     33  29  85 MISG      29.87F
6HR MIN TEMP:  33; 6HR MAX TEMP:  39;

$$

MSZ040-058-251300-
CENTRAL MISSISSIPPI

CITY           SKY/WX    TMP DP  RH WIND       PRES   REMARKS
JACKSON INTL   CLEAR     36  34  92 S8        29.96S WCI  30
6HR MIN TEMP:  35; 6HR MAX TEMP:  41;

JACKSON HAWKNS CLEAR     38  35  89 S8        29.95F WCI  32
6HR MIN TEMP:  37; 6HR MAX TEMP:  43;

MERIDIAN KEY   CLEAR     32  30  92 S8        29.97F WCI  25
6HR MIN TEMP:  30; 6HR MAX TEMP:  33;

MERIDIAN NAS   CLEAR     38  33  82 SW6       29.96F WCI  33
6HR MIN TEMP:  36; 6HR MAX TEMP:  41;

RAYMOND        FAIR      39  36  87 SW8       29.96S WCI  34
VICKSBURG      CLEAR     41  37  86 S3        29.97S
6HR MIN TEMP:  40; 6HR MAX TEMP:  44;

$$

MSZ059>079-251300-
SOUTH MISSISSIPPI

CITY           SKY/WX    TMP DP  RH WIND       PRES   REMARKS
BROOKHAVEN       N/A     37  37 100 SW3       29.99F
HATTIESBURG    CLEAR     35  33  92 CALM      30.02S
6HR MIN TEMP:  34; 6HR MAX TEMP:  43;

MCCOMB         CLEAR     32  30  92 CALM      29.99F FOG
6HR MIN TEMP:  30; 6HR MAX TEMP:  40;

NATCHEZ        CLEAR     41  36  81 SW5       29.99F
6HR MIN TEMP:  41; 6HR MAX TEMP:  45;

PINE BELT      CLEAR     36  30  80 S5        30.00F WCI  32
6HR MIN TEMP:  32; 6HR MAX TEMP:  41;

$$

MSZ080>082-251300-
COASTAL MISSISSIPPI

CITY           SKY/WX    TMP DP  RH WIND       PRES   REMARKS
BILOXI         CLEAR     42  40  93 NW3       30.03F
6HR MIN TEMP:  41; 6HR MAX TEMP:  49;

PASCAGOULA     FOG       35  34  96 CALM      30.04F VSB 1/4
6HR MIN TEMP:  34; 6HR MAX TEMP:  43;

GULFPORT       CLEAR     36  34  92 CALM      30.03F
6HR MIN TEMP:  36; 6HR MAX TEMP:  44;

$$



USA.gov is the U.S. government's official web portal to all federal, state and local government web resources and services.